"Sample Date","Sample Time","Sample Value","Units","Flow Rate","Sample Interval","Number Channels","Micron Size 0","Counts/Channel 0","Micron Size 1","Counts/Channel 1","Micron Size 2","Counts/Channel 2","Micron Size 3","Counts/Channel 3","Micron Size 4","Counts/Channel 4","Micron Size 5","Counts/Channel 5","Micron Size 6","Counts/Channel 6","Micron Size 7","Counts/Channel 7","Micron Size 8","Counts/Channel 8","Micron Size 9","Counts/Channel 9","Micron Size 10","Counts/Channel 10","Micron Size 11","Counts/Channel 11","Micron Size 12","Counts/Channel 12","Micron Size 13","Counts/Channel 13","Micron Size 14","Counts/Channel 14","Micron Size 15","Counts/Channel 15","Micron Size 16","Counts/Channel 16","Micron Size 17","Counts/Channel 17","Micron Size 18","Counts/Channel 18","Micron Size 19","Counts/Channel 19","Micron Size 20","Counts/Channel 20","Micron Size 21","Counts/Channel 21","Micron Size 22","Counts/Channel 22","Micron Size 23","Counts/Channel 23","Micron Size 24","Counts/Channel 24","Micron Size 25","Counts/Channel 25","Micron Size 26","Counts/Channel 26","Micron Size 27","Counts/Channel 27","Micron Size 28","Counts/Channel 28","Micron Size 29","Counts/Channel 29","Micron Size 30","Counts/Channel 30","Micron Size 31","Counts/Channel 31"
"04/01/08","08:00:00",14352.000,"cc",28415.904,6.00,6,0.100,9784.000,0.200,1849.000,0.300,1201.000,0.500,1128.000,1.000,390.000,5.000,0
"04/01/08","08:00:06",13529.000,"cc",28308.885,6.00,6,0.100,8351.000,0.200,2059.000,0.300,1253.000,0.500,1382.000,1.000,484.000,5.000,0
"04/01/08","08:00:12",11797.000,"cc",28304.354,6.00,6,0.100,7499.000,0.200,1644.000,0.300,1132.000,0.500,1130.000,1.000,392.000,5.000,0
"04/01/08","08:00:18",14413.000,"cc",28283.588,6.00,6,0.100,9869.000,0.200,1897.000,0.300,1102.000,0.500,1157.000,1.000,388.000,5.000,0
"04/01/08","08:00:24",31544.000,"cc",28321.553,6.00,6,0.100,24363.000,0.200,3779.000,0.300,1460.000,0.500,1463.000,1.000,479.000,5.000,0
"04/01/08","08:00:30",15774.000,"cc",28297.715,6.00,6,0.100,11100.000,0.200,2012.000,0.300,1139.000,0.500,1149.000,1.000,374.000,5.000,0
"04/01/08","08:00:36",62054.000,"cc",28325.740,6.00,6,0.100,52045.000,0.200,6699.000,0.300,1517.000,0.500,1369.000,1.000,424.000,5.000,0
"04/01/08","08:00:42",104561.000,"cc",28273.688,6.00,6,0.100,90272.000,0.200,10891.000,0.300,1678.000,0.500,1294.000,1.000,426.000,5.000,0
"04/01/08","08:00:48",74517.000,"cc",28320.912,6.00,6,0.100,63767.000,0.200,7653.000,0.300,1454.000,0.500,1226.000,1.000,417.000,5.000,0
"04/01/08","08:00:54",84164.000,"cc",28341.199,6.00,6,0.100,72037.000,0.200,8713.000,0.300,1635.000,0.500,1335.000,1.000,444.000,5.000,0
"04/01/08","08:01:00",121042.000,"cc",28280.984,6.00,6,0.100,103638.000,0.200,12910.000,0.300,2158.000,0.500,1753.000,1.000,583.000,5.000,0
"04/01/08","08:01:06",103793.000,"cc",28306.729,6.00,6,0.100,88644.000,0.200,11010.000,0.300,2008.000,0.500,1588.000,1.000,543.000,5.000,0
"04/01/08","08:01:12",195470.000,"cc",28275.066,6.00,6,0.100,170208.000,0.200,20298.000,0.300,2539.000,0.500,1824.000,1.000,601.000,5.000,0
"04/01/08","08:01:18",224140.000,"cc",28356.070,6.00,6,0.100,195411.000,0.200,23397.000,0.300,2709.000,0.500,1915.000,1.000,708.000,5.000,0
"04/01/08","08:01:24",204587.000,"cc",28300.262,6.00,6,0.100,177055.000,0.200,21346.000,0.300,3180.000,0.500,2206.000,1.000,800.000,5.000,0
"04/01/08","08:01:30",121539.000,"cc",28287.174,6.00,6,0.100,103365.000,0.200,12500.000,0.300,2734.000,0.500,2153.000,1.000,787.000,5.000,0
"04/01/08","08:01:36",168634.000,"cc",28403.379,6.00,6,0.100,144725.000,0.200,17438.000,0.300,3135.000,0.500,2470.000,1.000,866.000,5.000,0
"04/01/08","08:01:42",216628.000,"cc",28274.477,6.00,6,0.100,192121.000,0.200,21104.000,0.300,1816.000,0.500,1161.000,1.000,426.000,5.000,0
"04/01/08","08:01:48",100267.000,"cc",28347.330,6.00,6,0.100,88466.000,0.200,9000.000,0.300,1354.000,0.500,1103.000,1.000,344.000,5.000,0
"04/01/08","08:01:54",186672.000,"cc",28300.840,6.00,6,0.100,164351.000,0.200,17687.000,0.300,2295.000,0.500,1729.000,1.000,610.000,5.000,0
"04/01/08","08:02:00",166273.000,"cc",28296.287,6.00,6,0.100,146882.000,0.200,15792.000,0.300,1795.000,0.500,1343.000,1.000,461.000,5.000,0
"04/01/08","08:02:06",120823.000,"cc",28333.096,6.00,6,0.100,107202.000,0.200,10930.000,0.300,1273.000,0.500,1043.000,1.000,375.000,5.000,0
"04/01/08","08:02:12",103869.000,"cc",28290.772,6.00,6,0.100,91723.000,0.200,9481.000,0.300,1260.000,0.500,1073.000,1.000,332.000,5.000,0
"04/01/08","08:02:18",170304.000,"cc",28333.238,6.00,6,0.100,151375.000,0.200,15756.000,0.300,1607.000,0.500,1176.000,1.000,390.000,5.000,0
"04/01/08","08:02:24",44933.000,"cc",28346.141,6.00,6,0.100,38344.000,0.200,4245.000,0.300,995.000,0.500,1001.000,1.000,348.000,5.000,0
"04/01/08","08:02:30",58662.000,"cc",28419.691,6.00,6,0.100,50370.000,0.200,5567.000,0.300,1170.000,0.500,1121.000,1.000,434.000,5.000,0
"04/01/08","08:02:36",109662.000,"cc",28257.275,6.00,6,0.100,96688.000,0.200,10029.000,0.300,1344.000,0.500,1184.000,1.000,417.000,5.000,0
"04/01/08","08:02:42",56044.000,"cc",28304.002,6.00,6,0.100,48337.000,0.200,5192.000,0.300,1141.000,0.500,1022.000,1.000,352.000,5.000,0
"04/01/08","08:02:48",51105.000,"cc",28304.809,6.00,6,0.100,43900.000,0.200,4681.000,0.300,1127.000,0.500,1027.000,1.000,370.000,5.000,0
"04/01/08","08:02:54",54772.000,"cc",28304.350,6.00,6,0.100,47130.000,0.200,5047.000,0.300,1130.000,0.500,1082.000,1.000,383.000,5.000,0
"04/01/08","08:03:00",20599.000,"cc",28284.693,6.00,6,0.100,15345.000,0.200,2429.000,0.300,1224.000,0.500,1190.000,1.000,411.000,5.000,0
"04/01/08","08:03:06",12797.000,"cc",28304.106,6.00,6,0.100,8745.000,0.200,1650.000,0.300,997.000,0.500,1049.000,1.000,356.000,5.000,0
"04/01/08","08:03:12",15606.000,"cc",28314.842,6.00,6,0.100,10818.000,0.200,2016.000,0.300,1165.000,0.500,1193.000,1.000,414.000,5.000,0
"04/01/08","08:03:18",12324.000,"cc",28418.340,6.00,6,0.100,8551.000,0.200,1463.000,0.300,939.000,0.500,1007.000,1.000,364.000,5.000,0
"04/01/08","08:03:24",10390.000,"cc",28344.389,6.00,6,0.100,6801.000,0.200,1360.000,0.300,928.000,0.500,967.000,1.000,334.000,5.000,0
"04/01/08","08:03:30",10214.000,"cc",28335.926,6.00,6,0.100,6691.000,0.200,1368.000,0.300,878.000,0.500,929.000,1.000,348.000,5.000,0
"04/01/08","08:03:36",10356.000,"cc",28271.375,6.00,6,0.100,6874.000,0.200,1301.000,0.300,879.000,0.500,978.000,1.000,324.000,5.000,0
"04/01/08","08:03:42",10458.000,"cc",28354.129,6.00,6,0.100,6765.000,0.200,1406.000,0.300,974.000,0.500,975.000,1.000,338.000,5.000,0
"04/01/08","08:03:48",10330.000,"cc",28360.898,6.00,6,0.100,6763.000,0.200,1348.000,0.300,893.000,0.500,996.000,1.000,330.000,5.000,0
"04/01/08","08:03:54",10244.000,"cc",28321.551,6.00,6,0.100,6776.000,0.200,1285.000,0.300,885.000,0.500,970.000,1.000,328.000,5.000,0
"04/01/08","08:04:00",10152.000,"cc",28318.336,6.00,6,0.100,6781.000,0.200,1267.000,0.300,851.000,0.500,945.000,1.000,308.000,5.000,0
"04/01/08","08:04:06",9884.000,"cc",28332.412,6.00,6,0.100,6489.000,0.200,1270.000,0.300,840.000,0.500,943.000,1.000,342.000,5.000,0
"04/01/08","08:04:12",9942.000,"cc",28360.365,6.00,6,0.100,6579.000,0.200,1242.000,0.300,869.000,0.500,941.000,1.000,311.000,5.000,0
"04/01/08","08:04:18",9903.000,"cc",28300.084,6.00,6,0.100,6510.000,0.200,1229.000,0.300,889.000,0.500,960.000,1.000,315.000,5.000,0
"04/01/08","08:04:24",10039.000,"cc",28296.703,6.00,6,0.100,6526.000,0.200,1328.000,0.300,945.000,0.500,946.000,1.000,294.000,5.000,0
"04/01/08","08:04:30",10082.000,"cc",28349.600,6.00,6,0.100,6607.000,0.200,1303.000,0.300,913.000,0.500,952.000,1.000,307.000,5.000,0
"04/01/08","08:04:36",9873.000,"cc",28375.602,6.00,6,0.100,6559.000,0.200,1235.000,0.300,881.000,0.500,897.000,1.000,301.000,5.000,0
"04/01/08","08:04:42",10023.000,"cc",28220.527,6.00,6,0.100,6595.000,0.200,1273.000,0.300,849.000,0.500,964.000,1.000,342.000,5.000,0
"04/01/08","08:04:48",9993.000,"cc",28334.678,6.00,6,0.100,6661.000,0.200,1274.000,0.300,861.000,0.500,917.000,1.000,280.000,5.000,0
"04/01/08","08:04:54",9722.000,"cc",28328.164,6.00,6,0.100,6380.000,0.200,1272.000,0.300,879.000,0.500,864.000,1.000,327.000,5.000,0
"04/01/08","08:05:00",9838.000,"cc",28335.799,6.00,6,0.100,6492.000,0.200,1284.000,0.300,873.000,0.500,904.000,1.000,285.000,5.000,0
"04/01/08","08:05:06",9770.000,"cc",28279.424,6.00,6,0.100,6448.000,0.200,1293.000,0.300,791.000,0.500,913.000,1.000,325.000,5.000,0
"04/01/08","08:05:12",9620.000,"cc",28275.850,6.00,6,0.100,6380.000,0.200,1246.000,0.300,792.000,0.500,912.000,1.000,290.000,5.000,0
"04/01/08","08:05:18",9633.000,"cc",28349.734,6.00,6,0.100,6420.000,0.200,1272.000,0.300,777.000,0.500,826.000,1.000,338.000,5.000,0
"04/01/08","08:05:24",9427.000,"cc",28358.229,6.00,6,0.100,6262.000,0.200,1171.000,0.300,799.000,0.500,909.000,1.000,286.000,5.000,0
"04/01/08","08:05:30",9327.000,"cc",28383.272,6.00,6,0.100,6221.000,0.200,1168.000,0.300,813.000,0.500,832.000,1.000,293.000,5.000,0
"04/01/08","08:05:36",9570.000,"cc",28306.977,6.00,6,0.100,6345.000,0.200,1214.000,0.300,780.000,0.500,919.000,1.000,312.000,5.000,0
"04/01/08","08:05:42",9660.000,"cc",28318.690,6.00,6,0.100,6320.000,0.200,1246.000,0.300,849.000,0.500,931.000,1.000,314.000,5.000,0
"04/01/08","08:05:48",9744.000,"cc",28313.443,6.00,6,0.100,6552.000,0.200,1211.000,0.300,811.000,0.500,877.000,1.000,293.000,5.000,0
"04/01/08","08:05:54",9542.000,"cc",28253.647,6.00,6,0.100,6330.000,0.200,1173.000,0.300,814.000,0.500,941.000,1.000,284.000,5.000,0
"04/01/08","08:06:00",9942.000,"cc",28233.281,6.00,6,0.100,6611.000,0.200,1250.000,0.300,864.000,0.500,915.000,1.000,302.000,5.000,0
"04/01/08","08:06:06",9669.000,"cc",28367.729,6.00,6,0.100,6385.000,0.200,1260.000,0.300,878.000,0.500,857.000,1.000,289.000,5.000,0
"04/01/08","08:06:12",9433.000,"cc",28379.090,6.00,6,0.100,6245.000,0.200,1267.000,0.300,809.000,0.500,806.000,1.000,306.000,5.000,0
"04/01/08","08:06:18",9058.000,"cc",28214.121,6.00,6,0.100,6054.000,0.200,1157.000,0.300,763.000,0.500,824.000,1.000,260.000,5.000,0
"04/01/08","08:06:24",9230.000,"cc",28240.143,6.00,6,0.100,6209.000,0.200,1141.000,0.300,726.000,0.500,864.000,1.000,290.000,5.000,0
"04/01/08","08:06:30",9355.000,"cc",28327.402,6.00,6,0.100,6231.000,0.200,1197.000,0.300,826.000,0.500,817.000,1.000,284.000,5.000,0
"04/01/08","08:06:36",9262.000,"cc",28343.193,6.00,6,0.100,6137.000,0.200,1192.000,0.300,819.000,0.500,805.000,1.000,309.000,5.000,0
"04/01/08","08:06:42",9477.000,"cc",28338.236,6.00,6,0.100,6293.000,0.200,1214.000,0.300,793.000,0.500,851.000,1.000,326.000,5.000,0
"04/01/08","08:06:48",9466.000,"cc",28265.043,6.00,6,0.100,6255.000,0.200,1240.000,0.300,795.000,0.500,872.000,1.000,304.000,5.000,0
"04/01/08","08:06:54",9129.000,"cc",28260.936,6.00,6,0.100,6161.000,0.200,1106.000,0.300,777.000,0.500,804.000,1.000,281.000,5.000,0
"04/01/08","08:07:00",9393.000,"cc",28343.383,6.00,6,0.100,6204.000,0.200,1228.000,0.300,785.000,0.500,879.000,1.000,297.000,5.000,0
"04/01/08","08:07:06",9427.000,"cc",28276.346,6.00,6,0.100,6218.000,0.200,1196.000,0.300,816.000,0.500,898.000,1.000,299.000,5.000,0
"04/01/08","08:07:12",9197.000,"cc",28216.885,6.00,6,0.100,6212.000,0.200,1152.000,0.300,761.000,0.500,793.000,1.000,279.000,5.000,0
"04/01/08","08:07:18",9246.000,"cc",28296.588,6.00,6,0.100,6228.000,0.200,1162.000,0.300,790.000,0.500,795.000,1.000,271.000,5.000,0
"04/01/08","08:07:24",9308.000,"cc",28313.904,6.00,6,0.100,6229.000,0.200,1181.000,0.300,773.000,0.500,823.000,1.000,302.000,5.000,0
"04/01/08","08:07:30",9352.000,"cc",28265.057,6.00,6,0.100,6195.000,0.200,1173.000,0.300,847.000,0.500,854.000,1.000,283.000,5.000,0
"04/01/08","08:07:36",9636.000,"cc",28387.285,6.00,6,0.100,6390.000,0.200,1230.000,0.300,820.000,0.500,909.000,1.000,287.000,5.000,0
"04/01/08","08:07:42",9335.000,"cc",28254.361,6.00,6,0.100,6280.000,0.200,1226.000,0.300,792.000,0.500,771.000,1.000,266.000,5.000,0
"04/01/08","08:07:48",9571.000,"cc",28362.471,6.00,6,0.100,6370.000,0.200,1241.000,0.300,822.000,0.500,871.000,1.000,267.000,5.000,0
"04/01/08","08:07:54",9422.000,"cc",28307.973,6.00,6,0.100,6265.000,0.200,1269.000,0.300,744.000,0.500,851.000,1.000,293.000,5.000,0
"04/01/08","08:08:00",9197.000,"cc",28393.982,6.00,6,0.100,6159.000,0.200,1191.000,0.300,710.000,0.500,839.000,1.000,298.000,5.000,0
"04/01/08","08:08:06",9420.000,"cc",28245.600,6.00,6,0.100,6310.000,0.200,1242.000,0.300,739.000,0.500,874.000,1.000,255.000,5.000,0
"04/01/08","08:08:12",9627.000,"cc",28323.389,6.00,6,0.100,6452.000,0.200,1262.000,0.300,840.000,0.500,811.000,1.000,262.000,5.000,0
"04/01/08","08:08:18",9427.000,"cc",28307.627,6.00,6,0.100,6344.000,0.200,1173.000,0.300,771.000,0.500,880.000,1.000,259.000,5.000,0
"04/01/08","08:08:24",9454.000,"cc",28326.969,6.00,6,0.100,6257.000,0.200,1244.000,0.300,837.000,0.500,818.000,1.000,298.000,5.000,0
"04/01/08","08:08:30",9489.000,"cc",28361.229,6.00,6,0.100,6382.000,0.200,1212.000,0.300,821.000,0.500,819.000,1.000,255.000,5.000,0
"04/01/08","08:08:36",9166.000,"cc",28332.820,6.00,6,0.100,6082.000,0.200,1188.000,0.300,740.000,0.500,857.000,1.000,299.000,5.000,0
"04/01/08","08:08:42",9259.000,"cc",28353.100,6.00,6,0.100,6125.000,0.200,1228.000,0.300,834.000,0.500,794.000,1.000,278.000,5.000,0
"04/01/08","08:08:48",9122.000,"cc",28370.820,6.00,6,0.100,6026.000,0.200,1209.000,0.300,788.000,0.500,823.000,1.000,276.000,5.000,0
"04/01/08","08:08:54",9414.000,"cc",28277.645,6.00,6,0.100,6170.000,0.200,1232.000,0.300,823.000,0.500,909.000,1.000,280.000,5.000,0
"04/01/08","08:09:00",9466.000,"cc",28380.902,6.00,6,0.100,6262.000,0.200,1217.000,0.300,841.000,0.500,871.000,1.000,275.000,5.000,0
"04/01/08","08:09:06",9596.000,"cc",28224.481,6.00,6,0.100,6218.000,0.200,1307.000,0.300,864.000,0.500,932.000,1.000,275.000,5.000,0
"04/01/08","08:09:12",9477.000,"cc",28328.697,6.00,6,0.100,6358.000,0.200,1203.000,0.300,831.000,0.500,789.000,1.000,296.000,5.000,0
"04/01/08","08:09:18",9491.000,"cc",28317.250,6.00,6,0.100,6182.000,0.200,1248.000,0.300,838.000,0.500,886.000,1.000,337.000,5.000,0
"04/01/08","08:09:24",9593.000,"cc",28289.781,6.00,6,0.100,6327.000,0.200,1208.000,0.300,857.000,0.500,868.000,1.000,333.000,5.000,0
"04/01/08","08:09:30",9303.000,"cc",28411.609,6.00,6,0.100,6127.000,0.200,1233.000,0.300,828.000,0.500,854.000,1.000,261.000,5.000,0
"04/01/08","08:09:36",9592.000,"cc",28301.416,6.00,6,0.100,6288.000,0.200,1240.000,0.300,903.000,0.500,861.000,1.000,300.000,5.000,0
"04/01/08","08:09:42",9455.000,"cc",28311.852,6.00,6,0.100,6228.000,0.200,1182.000,0.300,851.000,0.500,884.000,1.000,310.000,5.000,0
"04/01/08","08:09:48",9472.000,"cc",28301.225,6.00,6,0.100,6311.000,0.200,1177.000,0.300,825.000,0.500,866.000,1.000,293.000,5.000,0
"04/01/08","08:09:54",9484.000,"cc",28304.662,6.00,6,0.100,6225.000,0.200,1202.000,0.300,854.000,0.500,887.000,1.000,316.000,5.000,0
"04/01/08","08:10:00",9418.000,"cc",28323.012,6.00,6,0.100,6251.000,0.200,1195.000,0.300,776.000,0.500,884.000,1.000,312.000,5.000,0
"04/01/08","08:10:06",9664.000,"cc",28271.481,6.00,6,0.100,6275.000,0.200,1207.000,0.300,896.000,0.500,954.000,1.000,332.000,5.000,0
"04/01/08","08:10:12",9669.000,"cc",28395.309,6.00,6,0.100,6335.000,0.200,1234.000,0.300,900.000,0.500,902.000,1.000,298.000,5.000,0
"04/01/08","08:10:18",9712.000,"cc",28291.566,6.00,6,0.100,6384.000,0.200,1257.000,0.300,864.000,0.500,918.000,1.000,289.000,5.000,0
"04/01/08","08:10:24",9452.000,"cc",28371.854,6.00,6,0.100,6162.000,0.200,1252.000,0.300,806.000,0.500,919.000,1.000,313.000,5.000,0
"04/01/08","08:10:30",9365.000,"cc",28301.609,6.00,6,0.100,6087.000,0.200,1210.000,0.300,839.000,0.500,920.000,1.000,309.000,5.000,0
"04/01/08","08:10:36",9219.000,"cc",28339.746,6.00,6,0.100,6059.000,0.200,1201.000,0.300,859.000,0.500,835.000,1.000,265.000,5.000,0
"04/01/08","08:10:42",9332.000,"cc",28285.400,6.00,6,0.100,6099.000,0.200,1177.000,0.300,859.000,0.500,912.000,1.000,285.000,5.000,0
"04/01/08","08:10:48",9232.000,"cc",28350.357,6.00,6,0.100,6036.000,0.200,1215.000,0.300,808.000,0.500,885.000,1.000,288.000,5.000,0
"04/01/08","08:10:54",9225.000,"cc",28368.482,6.00,6,0.100,6088.000,0.200,1205.000,0.300,762.000,0.500,868.000,1.000,302.000,5.000,0
"04/01/08","08:11:00",8885.000,"cc",28241.172,6.00,6,0.100,5788.000,0.200,1171.000,0.300,789.000,0.500,824.000,1.000,313.000,5.000,0
"04/01/08","08:11:06",9110.000,"cc",28327.361,6.00,6,0.100,5932.000,0.200,1218.000,0.300,806.000,0.500,860.000,1.000,294.000,5.000,0
"04/01/08","08:11:12",9117.000,"cc",28302.211,6.00,6,0.100,5919.000,0.200,1212.000,0.300,786.000,0.500,888.000,1.000,312.000,5.000,0
"04/01/08","08:11:18",8901.000,"cc",28345.596,6.00,6,0.100,5900.000,0.200,1125.000,0.300,767.000,0.500,824.000,1.000,285.000,5.000,0
"04/01/08","08:11:24",9336.000,"cc",28294.068,6.00,6,0.100,6089.000,0.200,1172.000,0.300,890.000,0.500,866.000,1.000,319.000,5.000,0
"04/01/08","08:11:30",9229.000,"cc",28309.697,6.00,6,0.100,5976.000,0.200,1225.000,0.300,832.000,0.500,865.000,1.000,331.000,5.000,0
"04/01/08","08:11:36",9414.000,"cc",28250.049,6.00,6,0.100,6207.000,0.200,1197.000,0.300,808.000,0.500,901.000,1.000,301.000,5.000,0
"04/01/08","08:11:42",9515.000,"cc",28196.053,6.00,6,0.100,6216.000,0.200,1212.000,0.300,857.000,0.500,923.000,1.000,307.000,5.000,0
"04/01/08","08:11:48",9653.000,"cc",28305.252,6.00,6,0.100,6293.000,0.200,1268.000,0.300,876.000,0.500,908.000,1.000,308.000,5.000,0
"04/01/08","08:11:54",9561.000,"cc",28284.066,6.00,6,0.100,6224.000,0.200,1216.000,0.300,865.000,0.500,951.000,1.000,305.000,5.000,0
"04/01/08","08:12:00",9544.000,"cc",28396.514,6.00,6,0.100,6209.000,0.200,1276.000,0.300,851.000,0.500,898.000,1.000,310.000,5.000,0
"04/01/08","08:12:06",9329.000,"cc",28231.973,6.00,6,0.100,6105.000,0.200,1221.000,0.300,839.000,0.500,858.000,1.000,306.000,5.000,0
"04/01/08","08:12:12",9276.000,"cc",28328.652,6.00,6,0.100,6072.000,0.200,1190.000,0.300,805.000,0.500,877.000,1.000,332.000,5.000,0
"04/01/08","08:12:18",9477.000,"cc",28369.684,6.00,6,0.100,6186.000,0.200,1219.000,0.300,871.000,0.500,911.000,1.000,290.000,5.000,0
"04/01/08","08:12:24",9347.000,"cc",28298.398,6.00,6,0.100,6132.000,0.200,1231.000,0.300,819.000,0.500,857.000,1.000,308.000,5.000,0
"04/01/08","08:12:30",9158.000,"cc",28342.154,6.00,6,0.100,5932.000,0.200,1207.000,0.300,827.000,0.500,865.000,1.000,327.000,5.000,0
"04/01/08","08:12:36",9377.000,"cc",28423.053,6.00,6,0.100,6015.000,0.200,1225.000,0.300,905.000,0.500,921.000,1.000,311.000,5.000,0
"04/01/08","08:12:42",9034.000,"cc",28319.434,6.00,6,0.100,5807.000,0.200,1183.000,0.300,826.000,0.500,933.000,1.000,285.000,5.000,0
"04/01/08","08:12:48",8934.000,"cc",28214.434,6.00,6,0.100,5683.000,0.200,1188.000,0.300,826.000,0.500,951.000,1.000,286.000,5.000,0
"04/01/08","08:12:54",9085.000,"cc",28301.959,6.00,6,0.100,5812.000,0.200,1188.000,0.300,865.000,0.500,902.000,1.000,318.000,5.000,0
"04/01/08","08:13:00",8996.000,"cc",28343.246,6.00,6,0.100,5789.000,0.200,1185.000,0.300,859.000,0.500,881.000,1.000,282.000,5.000,0
"04/01/08","08:13:06",8851.000,"cc",28356.129,6.00,6,0.100,5751.000,0.200,1133.000,0.300,809.000,0.500,868.000,1.000,290.000,5.000,0
"04/01/08","08:13:12",8994.000,"cc",28385.477,6.00,6,0.100,5705.000,0.200,1184.000,0.300,884.000,0.500,884.000,1.000,337.000,5.000,0
"04/01/08","08:13:18",8936.000,"cc",28332.656,6.00,6,0.100,5698.000,0.200,1207.000,0.300,850.000,0.500,871.000,1.000,310.000,5.000,0
"04/01/08","08:13:24",8513.000,"cc",28380.641,6.00,6,0.100,5566.000,0.200,1110.000,0.300,768.000,0.500,813.000,1.000,256.000,5.000,0
"04/01/08","08:13:30",8623.000,"cc",28348.701,6.00,6,0.100,5632.000,0.200,1100.000,0.300,805.000,0.500,794.000,1.000,292.000,5.000,0
"04/01/08","08:13:36",8903.000,"cc",28330.232,6.00,6,0.100,5803.000,0.200,1173.000,0.300,793.000,0.500,847.000,1.000,287.000,5.000,0
"04/01/08","08:13:42",8761.000,"cc",28277.340,6.00,6,0.100,5673.000,0.200,1171.000,0.300,774.000,0.500,866.000,1.000,277.000,5.000,0
"04/01/08","08:13:48",8817.000,"cc",28292.195,6.00,6,0.100,5671.000,0.200,1158.000,0.300,767.000,0.500,895.000,1.000,326.000,5.000,0
"04/01/08","08:13:54",8513.000,"cc",28320.479,6.00,6,0.100,5556.000,0.200,1121.000,0.300,751.000,0.500,801.000,1.000,284.000,5.000,0
"04/01/08","08:14:00",8401.000,"cc",28295.830,6.00,6,0.100,5393.000,0.200,1133.000,0.300,733.000,0.500,839.000,1.000,303.000,5.000,0
"04/01/08","08:14:06",8451.000,"cc",28264.920,6.00,6,0.100,5447.000,0.200,1134.000,0.300,774.000,0.500,814.000,1.000,282.000,5.000,0
"04/01/08","08:14:12",8359.000,"cc",28293.279,6.00,6,0.100,5438.000,0.200,1056.000,0.300,796.000,0.500,796.000,1.000,273.000,5.000,0
"04/01/08","08:14:18",8487.000,"cc",28334.598,6.00,6,0.100,5502.000,0.200,1142.000,0.300,738.000,0.500,824.000,1.000,281.000,5.000,0
"04/01/08","08:14:24",8559.000,"cc",28231.783,6.00,6,0.100,5544.000,0.200,1123.000,0.300,792.000,0.500,843.000,1.000,257.000,5.000,0
"04/01/08","08:14:30",8753.000,"cc",28376.471,6.00,6,0.100,5716.000,0.200,1076.000,0.300,815.000,0.500,846.000,1.000,300.000,5.000,0
"04/01/08","08:14:36",8794.000,"cc",28310.816,6.00,6,0.100,5665.000,0.200,1141.000,0.300,801.000,0.500,879.000,1.000,308.000,5.000,0
"04/01/08","08:14:42",8771.000,"cc",28309.154,6.00,6,0.100,5613.000,0.200,1168.000,0.300,851.000,0.500,833.000,1.000,306.000,5.000,0
"04/01/08","08:14:48",8785.000,"cc",28326.781,6.00,6,0.100,5601.000,0.200,1142.000,0.300,861.000,0.500,880.000,1.000,301.000,5.000,0
"04/01/08","08:14:54",8556.000,"cc",28347.793,6.00,6,0.100,5483.000,0.200,1153.000,0.300,803.000,0.500,813.000,1.000,304.000,5.000,0
"04/01/08","08:15:00",8652.000,"cc",28342.117,6.00,6,0.100,5511.000,0.200,1152.000,0.300,786.000,0.500,940.000,1.000,263.000,5.000,0
"04/01/08","08:15:06",8760.000,"cc",28276.910,6.00,6,0.100,5629.000,0.200,1137.000,0.300,820.000,0.500,887.000,1.000,287.000,5.000,0
"04/01/08","08:15:12",8540.000,"cc",28299.539,6.00,6,0.100,5481.000,0.200,1154.000,0.300,758.000,0.500,835.000,1.000,312.000,5.000,0
"04/01/08","08:15:18",8614.000,"cc",28237.506,6.00,6,0.100,5592.000,0.200,1158.000,0.300,791.000,0.500,778.000,1.000,295.000,5.000,0
"04/01/08","08:15:24",8829.000,"cc",28321.139,6.00,6,0.100,5670.000,0.200,1144.000,0.300,828.000,0.500,873.000,1.000,314.000,5.000,0
"04/01/08","08:15:30",8750.000,"cc",28293.324,6.00,6,0.100,5645.000,0.200,1158.000,0.300,810.000,0.500,847.000,1.000,290.000,5.000,0
"04/01/08","08:15:36",8762.000,"cc",28296.150,6.00,6,0.100,5684.000,0.200,1158.000,0.300,772.000,0.500,841.000,1.000,307.000,5.000,0
"04/01/08","08:15:42",8648.000,"cc",28257.787,6.00,6,0.100,5495.000,0.200,1118.000,0.300,810.000,0.500,899.000,1.000,326.000,5.000,0
"04/01/08","08:15:48",8876.000,"cc",28300.262,6.00,6,0.100,5668.000,0.200,1175.000,0.300,821.000,0.500,924.000,1.000,288.000,5.000,0
"04/01/08","08:15:54",8770.000,"cc",28336.170,6.00,6,0.100,5669.000,0.200,1138.000,0.300,816.000,0.500,851.000,1.000,296.000,5.000,0
"04/01/08","08:16:00",8601.000,"cc",28243.340,6.00,6,0.100,5499.000,0.200,1173.000,0.300,781.000,0.500,826.000,1.000,322.000,5.000,0
"04/01/08","08:16:06",8400.000,"cc",28322.232,6.00,6,0.100,5440.000,0.200,1172.000,0.300,738.000,0.500,760.000,1.000,290.000,5.000,0
"04/01/08","08:16:12",8374.000,"cc",28351.459,6.00,6,0.100,5392.000,0.200,1111.000,0.300,780.000,0.500,807.000,1.000,284.000,5.000,0
"04/01/08","08:16:18",8604.000,"cc",28291.275,6.00,6,0.100,5559.000,0.200,1187.000,0.300,804.000,0.500,792.000,1.000,262.000,5.000,0
"04/01/08","08:16:24",8612.000,"cc",28364.205,6.00,6,0.100,5521.000,0.200,1130.000,0.300,818.000,0.500,865.000,1.000,278.000,5.000,0
"04/01/08","08:16:30",8367.000,"cc",28330.281,6.00,6,0.100,5280.000,0.200,1069.000,0.300,868.000,0.500,863.000,1.000,287.000,5.000,0
"04/01/08","08:16:36",8341.000,"cc",28280.551,6.00,6,0.100,5290.000,0.200,1150.000,0.300,797.000,0.500,813.000,1.000,291.000,5.000,0
"04/01/08","08:16:42",8660.000,"cc",28330.131,6.00,6,0.100,5546.000,0.200,1142.000,0.300,807.000,0.500,863.000,1.000,302.000,5.000,0